sat.trackr.live / text

‹ back to catalog

STARLINK-36791

NORAD 68111 · 2026-044L

PAYLOAD ACTIVE UNKNOWN

§ Identity

Operator
Country
US
Launch date
2026-03-08
Launch site
AFWTR
Launch vehicle
Mass (kg)
RCS (m²)

Purposes: comms

External: N2YO · Heavens-Above · Gunter

§ Orbital elements

Epoch: 2026-05-25T04:07:47.559072Z

Period
93.90 min
Inclination
97.2845°
Eccentricity
0.0001725
Mean motion
15.33465057 rev/d
Perigee alt
464.3 km
Apogee alt
466.7 km
Semi-major
6,843.6 km
B*
1.0434e-3
RAAN
105.7919°
Arg perigee
93.5029°
Mean anomaly
266.6411°
Rev number
1,330

§ Raw data

STARLINK-367911 68111U 26044L   26145.17207823  .00033782  00000+0  10434-2 0  99972 68111  97.2845 105.7919 0001725  93.5029 266.6411 15.33465057 13301

JSON: /api/v1/satellites/68111 · /tle

For live sub-satellite position, see the globe view (requires WebGL).

§ Visibility from observer

Set your observer location to see the next 7 days of passes ≥ 10°. The values pass through the URL so the page stays shareable.

No JS? Fill the form by hand. The geolocation button needs JavaScript.